{"data":{"norad_id":66345,"intl_designator":"2025-253AC","name":"STARLINK-35440","alt_names":[],"object_type":"PAYLOAD","status":"ACTIVE","operator":null,"country":"US","launch_date":"2025-11-06","launch_site_code":"AFETR","launch_vehicle":null,"mission":null,"orbit_class":"UNKNOWN","rcs_meters":null,"size_class":null,"mass_kg":null,"dimensions":null,"purposes":["comms"],"wikipedia_slug":null,"has_3d_model":false,"image_url":null,"decayed_at":null,"tle_current":{"epoch":"2026-05-24T23:57:12.837600Z","epoch_age_seconds":69251,"freshness":"FRESH","line1":"1 66345U 25253AC  26144.99806525  .00016807  00000+0  61869-3 0  9996","line2":"2 66345  43.0001 141.6560 0001230 263.4123  96.6588 15.27590210 31912","mean_motion":15.2759021,"eccentricity":0.000123,"inclination_deg":43.0001,"raan_deg":141.656,"arg_perigee_deg":263.4123,"mean_anomaly_deg":96.6588,"bstar":0.00061869,"rev_number":3191,"period_min":94.266118660187,"perigee_km":482.17460166748,"apogee_km":483.86244592633,"semimajor_km":6861.1555237969,"source":"CELESTRAK","updated_at":"2026-05-25T13:38:21.172431Z"}}}